Ubon Ratchathani, Thailand

12:15 PM ICT on February 24, 2017 (GMT +0700)
Ubon Ratchathani

Weather History for VTUU - October, 2011

Change the Weather History Date:

Wednesday, October 26, 2011

  Actual Average Record
Temperature  
Mean Temperature 82 °F -  
Max Temperature 92 °F 87 °F - ()
Min Temperature 73 °F 69 °F - ()
Cooling Degree Days 18    
Growing Degree Days 32 (Base 50)    
Moisture  
Dew Point 71 °F    
Average Humidity 71    
Maximum Humidity 94    
Minimum Humidity 43    
Precipitation  
Precipitation 0.00 in 0.04 in - ()
Sea Level Pressure  
Sea Level Pressure 29.83 in    
Wind  
Wind Speed 5 mph ()    
Max Wind Speed 14 mph    
Max Gust Speed -    
Visibility 6.0 miles    
Events      
T = Trace of Precipitation, MM = Missing Value Source: Averaged Metar Reports

Daily Weather History Graph

Daily Weather History Graph

Search for Another Location

Airport or City:

Trip Planner

Search our weather history database for the weather conditions in past years. The results will help you decide how hot, cold, wet, or windy it might be!

Date:

Astronomy

Oct. 26, 2011 Rise Set
Actual Time 5:54 AM ICT 5:34 PM ICT
Civil Twilight 5:32 AM ICT 5:56 PM ICT
Nautical Twilight 5:07 AM ICT 6:21 PM ICT
Astronomical Twilight 4:42 AM ICT 6:46 PM ICT
Moon 5:01 AM ICT (10/26) 4:59 PM ICT (10/26)
Length of Visible Light 12h 23m
Length of Day
11h 39m
Waning Crescent, 1% of the Moon is Illuminated
Oct 26
Waning Crescent
Oct 27
New
Nov 2
First Quarter
Nov 11
Full
Nov 18
Last Quarter

Hourly Weather History & Observations

Time (ICT) Temp. Heat Index Dew Point Humidity Pressure Visibility Wind Dir Wind Speed Gust Speed Precip Events Conditions
12:00 AM 77.0 °F - 71.6 °F 83% 29.83 in - North 4.6 mph - N/A   Clear
1:00 AM 76 °F - 72 °F 82% 29.83 in 6 mi NNE 5.8 mph - -   Scattered Clouds
1:00 AM 75.2 °F - 71.6 °F 89% 29.83 in - NNE 5.8 mph - N/A   Clear
2:00 AM 75.2 °F - 71.6 °F 89% 29.80 in - NNE 4.6 mph - N/A   Clear
3:00 AM 75.2 °F - 71.6 °F 89% 29.80 in - NNE 4.6 mph - N/A   Clear
4:00 AM 73.4 °F - 71.6 °F 94% 29.80 in - NNE 5.8 mph - N/A   Clear
5:00 AM 73.4 °F - 71.6 °F 94% 29.80 in 5.6 mi North 4.6 mph - N/A   Scattered Clouds
6:00 AM 73.4 °F - 71.6 °F 94% 29.86 in 5.6 mi NNE 4.6 mph - N/A   Mostly Cloudy
7:00 AM 76 °F - 71 °F 80% 29.88 in 6 mi NNE 8.1 mph - -   Scattered Clouds
7:00 AM 75.2 °F - 71.6 °F 89% 29.86 in 6.2 mi NNE 8.1 mph - N/A   Scattered Clouds
8:00 AM 78.8 °F - 69.8 °F 74% 29.89 in 6.2 mi NNE 13.8 mph - N/A   Scattered Clouds
9:00 AM 82.4 °F 86.3 °F 69.8 °F 66% 29.89 in 6.2 mi NNE 10.4 mph - N/A   Scattered Clouds
10:00 AM 86.0 °F 90.4 °F 69.8 °F 58% 29.89 in 6.2 mi NNE 6.9 mph - N/A   Scattered Clouds
11:00 AM 87.8 °F 93.8 °F 71.6 °F 58% 29.86 in 6.2 mi NNE 10.4 mph - N/A   Scattered Clouds
12:00 PM 89.6 °F 96.2 °F 71.6 °F 55% 29.86 in 6.2 mi NNE 5.8 mph - N/A   Scattered Clouds
1:00 PM 90 °F - 70 °F 43% 29.83 in 6 mi NNE 6.9 mph - -   Partly Cloudy
1:00 PM 89.6 °F 94.7 °F 69.8 °F 52% 29.83 in 6.2 mi NNE 6.9 mph - N/A   Scattered Clouds
2:00 PM 91.4 °F 96.8 °F 69.8 °F 49% 29.80 in 6.2 mi NNE 6.9 mph - N/A   Scattered Clouds
3:00 PM 91.4 °F 96.8 °F 69.8 °F 49% 29.77 in 6.2 mi North 5.8 mph - N/A   Scattered Clouds
4:00 PM 89.6 °F 96.2 °F 71.6 °F 55% 29.77 in 6.2 mi North 5.8 mph - N/A   Scattered Clouds
5:00 PM 89.6 °F 96.2 °F 71.6 °F 55% 29.80 in 6.2 mi North 3.5 mph - N/A   Scattered Clouds
6:00 PM 86.0 °F 91.8 °F 71.6 °F 62% 29.80 in 5.6 mi North 4.6 mph - N/A   Mostly Cloudy
7:00 PM 83 °F - 72 °F 61% 29.82 in 6 mi North 4.6 mph - -   Mist
7:00 PM 84.2 °F 89.6 °F 71.6 °F 66% 29.80 in 5.6 mi North 4.6 mph - N/A   Scattered Clouds
8:00 PM 82.4 °F 87.2 °F 71.6 °F 70% 29.83 in 5.6 mi NNE 5.8 mph - N/A   Scattered Clouds
9:00 PM 80.6 °F 84.6 °F 71.6 °F 74% 29.86 in 6.2 mi NNE 6.9 mph - N/A   Scattered Clouds
10:00 PM 78.8 °F - 71.6 °F 78% 29.86 in - NNE 3.5 mph - N/A   Clear
11:00 PM 77.0 °F - 71.6 °F 83% 29.86 in - NNE 4.6 mph - N/A   Clear